SL-14 DEB

Satellite information

Favourite Embed

Satellite Type and Status

DEBRISIN ORBIT

Key statistics

Satellite SL-14 DEB at a glance.

Uptime

13998

Days in orbit

Revolutions

≈ 14.1

Per day

Orbit

LEO

Low Earth Orbit

Inclination

82.5

Latest

Satellite identification and parameters

Extended collection of information and parameters for SL-14 DEB.

Object identification

Identified? True

Debris? True

Object name: SL-14 DEB

International designator: 1987-068DM

Object number (NORAD): 39985

Object ID (CCSDS): 39985

Country: COMMONWEALTH OF INDEPENDENT STATES (CIS)

Current information (Y/N): Y

RCS size: SMALL

Orbital parameters

Period: 101.97 minutes

Inclination: 82.5195 deg

SMA: 7230.079 km

Apoapsis: 859.258 km

Periapsis: 844.629 km

RAAN: 246.8097 deg

Eccentricy: 0.00101168

Argument of periapsis: 53.7875 deg

Mean anomaly: 306.4235 deg

Mean motion: 14.12174103 rev/day

Mean motion (dot): 0.00003628 rev/day2

B* drag term: 0.0019672955 1/REarth

Two-line elements (TLE)

Creation date: Dec. 6, 2025, 6 a.m.

Reference frame: TEME

Reference center: EARTH

Epoch: Dec. 2, 2025, 11:32 a.m. UTC

TLE line 0: 0 SL-14 DEB

TLE line 1: 1 39985U 87068DM 25336.48093531 .00003628 00000-0 19673-2 0 9992

TLE line 2: 2 39985 82.5195 246.8097 0010117 53.7875 306.4235 14.12174103570679

Live tracking on map

Real-time ground track for satellite SL-14 DEB.

In-orbit conjunctions

A list of the most updated potential collisions computed for object SL-14 DEB.

Target Orbit TCA Probability of collision Miss distance Type
FENGYUN 1C DEB * SSO 2025-04-12 04:35:51 0.0001307787 96.0 (m) DEBRIS
CZ-6A DEB LEO 2024-12-02 22:54:47 0.000115999 567.0 (m) DEBRIS
CZ-6A DEB SSO 2024-06-30 14:38:32 0.0001220613 348.0 (m) DEBRIS

Associated space launch

Second generation soviet meteorological satellite

SL-14 DEB was lifted into orbit during the mission ‘Tsiklon-3 | Meteor-2 16’, on board a Tsiklon-3 space rocket.

The launch took place on Aug. 18, 1987, 2:27 a.m. from 32/1.

For more information about the launch, click the button.

Launch to space Tsiklon-3 | Meteor-2 16
Tsiklon-3 | Meteor-2 16

Agency: N/A

Status: Launch Successful

Launch date: Aug. 18, 1987, 2:27 a.m. UTC

Rocket: Tsiklon-3

Launch pad: 32/1

Location: Plesetsk Cosmodrome, Russian Federation

...

Latest news about this satellite

There are no fresh news available about this satellite. Check back as we update our databases every day.


Newsletter sign-up

Weekly statistics, charts and insights to help you stay on top of the space industry.